Weather History for Penn Yan, NY

Change the Weather History Date:

Sunday, August 25, 2013

  Actual Average (KITH) Record (KITH)
Temperature  
Mean Temperature 66 °F -  
Max Temperature 82 °F 76 °F 94 °F (1954)
Min Temperature 51 °F 54 °F 35 °F (1940)
Cooling Degree Days 2    
Growing Degree Days 16 (Base 50)    
Moisture  
Dew Point 55 °F    
Average Humidity 67    
Maximum Humidity 97    
Minimum Humidity 37    
Precipitation  
Precipitation 0.01 in - - ()
Sea Level Pressure  
Sea Level Pressure 30.29 in    
Wind  
Wind Speed 4 mph (SSW)    
Max Wind Speed 12 mph    
Max Gust Speed 20 mph    
Visibility 9 miles    
Events      
Averages and records for this station are not official NWS values.
T = Trace of Precipitation, MM = Missing Value Source: NWS Daily Summary

Daily Weather History Graph

Daily Weather History Graph

Search for Another Location

Airport:

Trip Planner

Search our weather history database for the weather conditions in past years. The results will help you decide how hot, cold, wet, or windy it might be!

Date:

Astronomy

Aug. 25, 2013 Rise Set
Actual Time 6:25 AM EDT 7:53 PM EDT
Civil Twilight 5:56 AM EDT 8:23 PM EDT
Nautical Twilight 5:20 AM EDT 8:58 PM EDT
Astronomical Twilight 4:42 AM EDT 9:36 PM EDT
Moon 10:15 PM EDT (8/25) 11:33 AM EDT (8/25)
Length of Visible Light 14h 27m
Length of Day
13h 28m
Waning Gibbous, 76% of the Moon is Illuminated
Aug 25
Waning Gibbous
Aug 28
Last Quarter
Sep 5
New
Sep 12
First Quarter
Sep 19
Full

Hourly Weather History & Observations

Time (EDT) Temp. Heat Index Dew Point Humidity Pressure Visibility Wind Dir Wind Speed Gust Speed Precip Events Conditions
12:53 AM 55.9 °F - 53.1 °F 90% 30.35 in 8.0 mi Calm Calm - N/A   Clear
1:53 AM 54.0 °F - 52.0 °F 93% 30.35 in 6.0 mi SW 3.5 mph - N/A   Clear
2:53 AM 55.9 °F - 54.0 °F 93% 30.34 in 7.0 mi SSW 3.5 mph - 0.01 in   Clear
3:53 AM 54.0 °F - 53.1 °F 97% 30.35 in 6.0 mi SW 3.5 mph - N/A   Clear
4:53 AM 51.1 °F - 48.9 °F 92% 30.36 in 6.0 mi Calm Calm - N/A   Clear
5:53 AM 52.0 °F - 50.0 °F 93% 30.37 in 7.0 mi Calm Calm - N/A   Clear
6:53 AM 55.9 °F - 53.1 °F 90% 30.37 in 7.0 mi SW 3.5 mph - N/A   Clear
7:53 AM 59.0 °F - 55.0 °F 87% 30.38 in 10.0 mi SW 8.1 mph - N/A   Clear
8:53 AM 64.0 °F - 54.0 °F 70% 30.37 in 10.0 mi SSW 11.5 mph - N/A   Clear
9:53 AM 70.0 °F - 55.9 °F 61% 30.36 in 10.0 mi SSW 5.8 mph - N/A   Clear
10:53 AM 75.0 °F - 57.9 °F 55% 30.34 in 10.0 mi SSW 6.9 mph - N/A   Clear
11:53 AM 79.0 °F - 57.0 °F 47% 30.33 in 10.0 mi South 8.1 mph - N/A   Partly Cloudy
12:53 PM 80.1 °F - 52.0 °F 38% 30.30 in 10.0 mi SW 9.2 mph 18.4 mph N/A   Scattered Clouds
1:53 PM 82.0 °F 81.2 °F 53.1 °F 37% 30.28 in 10.0 mi SSW 9.2 mph 19.6 mph N/A   Mostly Cloudy
2:53 PM 81.0 °F 80.4 °F 53.1 °F 38% 30.28 in 10.0 mi SW 6.9 mph - N/A   Partly Cloudy
3:53 PM 81.0 °F 80.4 °F 53.1 °F 38% 30.25 in 10.0 mi SW 9.2 mph - N/A   Partly Cloudy
4:53 PM 81.0 °F 80.5 °F 54.0 °F 39% 30.24 in 10.0 mi Variable 5.8 mph - N/A   Scattered Clouds
5:53 PM 79.0 °F - 55.9 °F 45% 30.22 in 10.0 mi Calm Calm - N/A   Clear
6:53 PM 77.0 °F - 57.9 °F 52% 30.20 in 9.0 mi Calm Calm - N/A   Clear
7:53 PM 73.9 °F - 57.0 °F 55% 30.17 in 10.0 mi SSW 3.5 mph - N/A   Clear
8:53 PM 68.0 °F - 60.1 °F 76% 30.18 in 8.0 mi South 5.8 mph - N/A   Clear
9:53 PM 71.1 °F - 61.0 °F 70% 30.16 in 7.0 mi SSW 5.8 mph - N/A   Clear
10:53 PM 70.0 °F - 59.0 °F 68% 30.18 in 8.0 mi SSW 4.6 mph - N/A   Partly Cloudy
11:53 PM 68.0 °F - 60.1 °F 76% 30.22 in 10.0 mi Calm Calm - N/A   Mostly Cloudy